LOT202 EPKK-EPWA

Flight info

Callsign LOT202
Flight time 0h 37m
Altitude 21000
Route POBOK M985 KOTEK M866 LOGDA
Aircraft B38M/M-SDE1FGHILORVWXY/HB1

Departure

Time 2026-04-30 21:40
Airport Kraków John Paul II International Airport (EPKK)

Arrival

Time 2026-04-30 22:17
Airport Warsaw Chopin Airport (EPWA)
Time Latitude Longitude Altitude Speed Heading
2026-04-30 20:56 50.07537 19.79831 802 ft 0 kts 77°
2026-04-30 21:09 50.07537 19.79826 803 ft 0 kts 259°
2026-04-30 21:31 50.07532 19.79786 802 ft 0 kts 259°
2026-04-30 21:32 50.07531 19.79784 802 ft 1 kts 258°
2026-04-30 21:32 50.07530 19.79757 802 ft 4 kts 282°
2026-04-30 21:32 50.07567 19.79727 802 ft 9 kts 347°
2026-04-30 21:32 50.07640 19.79702 802 ft 10 kts 348°
2026-04-30 21:33 50.07692 19.79733 802 ft 9 kts 66°
2026-04-30 21:33 50.07729 19.79993 802 ft 15 kts 78°
2026-04-30 21:33 50.07753 19.80163 802 ft 12 kts 78°
2026-04-30 21:34 50.07765 19.80249 802 ft 9 kts 78°
2026-04-30 21:34 50.07770 19.80287 802 ft 0 kts 77°
2026-04-30 21:35 50.07772 19.80303 802 ft 4 kts 77°
2026-04-30 21:35 50.07784 19.80348 802 ft 4 kts 32°
2026-04-30 21:35 50.07825 19.80342 802 ft 0 kts 348°
2026-04-30 21:37 50.07828 19.80342 802 ft 2 kts 348°
2026-04-30 21:38 50.07852 19.80334 802 ft 6 kts 348°
2026-04-30 21:38 50.07908 19.80315 802 ft 11 kts 348°
2026-04-30 21:38 50.07997 19.80286 802 ft 8 kts 348°
2026-04-30 21:38 50.08013 19.80209 802 ft 9 kts 258°
2026-04-30 21:39 50.07995 19.80075 803 ft 29 kts 258°
2026-04-30 21:39 50.07890 19.79320 802 ft 112 kts 258°
2026-04-30 21:39 50.07676 19.77790 885 ft 169 kts 258°
2026-04-30 21:39 50.07414 19.75877 1354 ft 189 kts 258°
2026-04-30 21:40 50.07134 19.73894 2358 ft 189 kts 259°
2026-04-30 21:40 50.06852 19.71883 3389 ft 193 kts 260°
2026-04-30 21:40 50.06556 19.69777 4138 ft 206 kts 260°
2026-04-30 21:40 50.06289 19.67513 4858 ft 220 kts 272°
2026-04-30 21:41 50.06666 19.65181 5493 ft 231 kts 305°
2026-04-30 21:41 50.07835 19.63404 6091 ft 245 kts 334°
2026-04-30 21:41 50.09503 19.62570 6785 ft 260 kts 349°
2026-04-30 21:41 50.11281 19.61933 7789 ft 261 kts 349°
2026-04-30 21:42 50.13088 19.61603 8466 ft 263 kts
2026-04-30 21:42 50.14798 19.62470 8431 ft 259 kts 33°
2026-04-30 21:42 50.16194 19.64249 8412 ft 260 kts 39°
2026-04-30 21:42 50.17571 19.66064 8394 ft 260 kts 39°
2026-04-30 21:43 50.18946 19.67897 8397 ft 260 kts 39°
2026-04-30 21:43 50.20316 19.69740 8399 ft 260 kts 40°
2026-04-30 21:43 50.21682 19.71586 8401 ft 260 kts 40°
2026-04-30 21:43 50.23049 19.73440 8400 ft 260 kts 40°
2026-04-30 21:44 50.24414 19.75294 8400 ft 260 kts 40°
2026-04-30 21:44 50.25779 19.77152 8396 ft 260 kts 40°
2026-04-30 21:44 50.27142 19.79011 8398 ft 260 kts 40°
2026-04-30 21:44 50.28503 19.80866 8397 ft 260 kts 40°
2026-04-30 21:45 50.29847 19.82701 8400 ft 259 kts 40°
2026-04-30 21:45 50.31211 19.84564 8517 ft 263 kts 40°
2026-04-30 21:45 50.32564 19.86414 9646 ft 258 kts 40°
2026-04-30 21:45 50.33941 19.88297 10554 ft 265 kts 40°
2026-04-30 21:46 50.35365 19.90247 11183 ft 280 kts 40°
2026-04-30 21:46 50.36873 19.92314 11670 ft 298 kts 40°
2026-04-30 21:46 50.38487 19.94528 12075 ft 316 kts 40°
2026-04-30 21:46 50.40176 19.96847 12630 ft 329 kts 40°
2026-04-30 21:47 50.41900 19.99218 13497 ft 330 kts 40°
2026-04-30 21:47 50.43630 20.01599 14362 ft 332 kts 40°
2026-04-30 21:47 50.45377 20.04005 15103 ft 335 kts 40°
2026-04-30 21:47 50.47131 20.06423 15855 ft 336 kts 40°
2026-04-30 21:48 50.48867 20.08819 16594 ft 338 kts 40°
2026-04-30 21:48 50.50636 20.11264 17327 ft 340 kts 40°
2026-04-30 21:48 50.52416 20.13726 18048 ft 342 kts 40°
2026-04-30 21:48 50.54207 20.16206 18739 ft 344 kts 40°
2026-04-30 21:49 50.56003 20.18694 19356 ft 345 kts 40°
2026-04-30 21:49 50.57860 20.21102 19948 ft 346 kts 32°
2026-04-30 21:49 50.60073 20.22616 20562 ft 349 kts 20°
2026-04-30 21:49 50.62383 20.23846 21121 ft 351 kts 21°
2026-04-30 21:50 50.64714 20.25109 21353 ft 359 kts 25°
2026-04-30 21:50 50.67010 20.26758 21356 ft 366 kts 26°
2026-04-30 21:50 50.69352 20.28409 21365 ft 369 kts 25°
2026-04-30 21:50 50.71706 20.30045 21381 ft 370 kts 25°
2026-04-30 21:51 50.74068 20.31672 21373 ft 370 kts 25°
2026-04-30 21:51 50.76428 20.33293 21383 ft 370 kts 25°
2026-04-30 21:51 50.78757 20.34892 21379 ft 370 kts 25°
2026-04-30 21:51 50.81149 20.36535 21384 ft 370 kts 25°
2026-04-30 21:52 50.83485 20.38141 21384 ft 370 kts 25°
2026-04-30 21:52 50.85848 20.39767 21390 ft 370 kts 25°
2026-04-30 21:52 50.88207 20.41391 21385 ft 370 kts 25°
2026-04-30 21:52 50.90568 20.43019 21390 ft 370 kts 25°
2026-04-30 21:53 50.92925 20.44646 21378 ft 370 kts 25°
2026-04-30 21:53 50.95282 20.46275 21382 ft 370 kts 25°
2026-04-30 21:53 50.97647 20.47911 21381 ft 370 kts 25°
2026-04-30 21:53 51.00000 20.49540 21371 ft 365 kts 25°
2026-04-30 21:54 51.02270 20.51114 21396 ft 347 kts 25°
2026-04-30 21:54 51.04425 20.52610 21398 ft 330 kts 25°
2026-04-30 21:54 51.06471 20.54032 21402 ft 313 kts 25°
2026-04-30 21:54 51.08433 20.55396 21405 ft 306 kts 25°
2026-04-30 21:55 51.10386 20.56756 21385 ft 306 kts 26°
2026-04-30 21:55 51.12324 20.58106 21390 ft 306 kts 25°
2026-04-30 21:55 51.14284 20.59473 21373 ft 306 kts 26°
2026-04-30 21:55 51.16239 20.60838 21382 ft 306 kts 26°
2026-04-30 21:56 51.18190 20.62201 21372 ft 306 kts 26°
2026-04-30 21:56 51.20120 20.63551 21373 ft 306 kts 26°
2026-04-30 21:56 51.22071 20.64916 21376 ft 306 kts 26°
2026-04-30 21:56 51.24019 20.66280 21382 ft 306 kts 26°
2026-04-30 21:57 51.25969 20.67648 21376 ft 306 kts 26°
2026-04-30 21:57 51.27917 20.69011 21380 ft 306 kts 25°
2026-04-30 21:57 51.29943 20.70118 21387 ft 307 kts 21°
2026-04-30 21:57 51.31978 20.71189 21381 ft 307 kts 21°
2026-04-30 21:58 51.34004 20.72270 21374 ft 307 kts 21°
2026-04-30 21:58 51.36033 20.73363 21262 ft 307 kts 21°
2026-04-30 21:58 51.38055 20.74457 21101 ft 308 kts 21°
2026-04-30 21:58 51.40093 20.75563 20757 ft 312 kts 21°
2026-04-30 21:59 51.42174 20.76694 20326 ft 327 kts 21°
2026-04-30 21:59 51.44354 20.77880 19913 ft 333 kts 21°
2026-04-30 21:59 51.46564 20.79084 19491 ft 337 kts 21°
2026-04-30 22:00 51.51006 20.81480 18564 ft 335 kts 21°
2026-04-30 22:00 51.55373 20.83834 17656 ft 328 kts 20°
2026-04-30 22:00 51.57536 20.85002 17218 ft 330 kts 20°
2026-04-30 22:01 51.59712 20.86178 16781 ft 331 kts 20°
2026-04-30 22:01 51.61167 20.86965 16493 ft 330 kts 20°
2026-04-30 22:01 51.63341 20.88142 16079 ft 329 kts 20°
2026-04-30 22:01 51.65487 20.89306 15913 ft 321 kts 20°
2026-04-30 22:02 51.67571 20.90437 15725 ft 310 kts 20°
2026-04-30 22:02 51.69588 20.91503 15535 ft 300 kts 19°
2026-04-30 22:02 51.71561 20.92537 15164 ft 296 kts 19°
2026-04-30 22:02 51.73500 20.93555 14892 ft 289 kts 19°
2026-04-30 22:03 51.75379 20.94544 14712 ft 280 kts 19°
2026-04-30 22:03 51.77237 20.95166 14393 ft 278 kts
2026-04-30 22:03 51.79133 20.94484 14005 ft 284 kts 341°
2026-04-30 22:03 51.80895 20.93055 13651 ft 281 kts 339°
2026-04-30 22:04 51.82631 20.91647 13308 ft 277 kts 339°
2026-04-30 22:04 51.84341 20.90244 12974 ft 273 kts 338°
2026-04-30 22:04 51.87710 20.87459 12308 ft 274 kts 338°
2026-04-30 22:05 51.89415 20.86044 11967 ft 276 kts 337°
2026-04-30 22:05 51.91074 20.84664 11848 ft 258 kts 338°
2026-04-30 22:05 51.92628 20.83371 11747 ft 246 kts 338°
2026-04-30 22:05 51.94115 20.82133 11611 ft 235 kts 338°
2026-04-30 22:06 51.95546 20.80945 11467 ft 227 kts 340°
2026-04-30 22:06 51.98540 20.80968 10878 ft 224 kts 30°
2026-04-30 22:06 51.99724 20.82642 10614 ft 230 kts 51°
2026-04-30 22:07 52.00566 20.84875 10341 ft 234 kts 57°
2026-04-30 22:07 52.01370 20.87194 10000 ft 236 kts 58°
2026-04-30 22:07 52.02022 20.89644 9631 ft 241 kts 76°
2026-04-30 22:07 52.01907 20.92371 9239 ft 250 kts 105°
2026-04-30 22:08 52.00959 20.94716 8917 ft 256 kts 135°
2026-04-30 22:08 51.99429 20.96269 8614 ft 257 kts 148°
2026-04-30 22:08 51.97877 20.97626 8293 ft 256 kts 148°
2026-04-30 22:08 51.96303 20.99017 7968 ft 260 kts 148°
2026-04-30 22:09 51.94705 21.00425 7632 ft 261 kts 148°
2026-04-30 22:09 51.93111 21.01827 7297 ft 261 kts 148°
2026-04-30 22:09 51.91501 21.03227 6899 ft 264 kts 149°
2026-04-30 22:09 51.89921 21.04726 6483 ft 262 kts 136°
2026-04-30 22:10 51.88877 21.07032 6103 ft 248 kts 105°
2026-04-30 22:10 51.88694 21.09686 5847 ft 233 kts 78°
2026-04-30 22:10 51.89193 21.12113 5536 ft 225 kts 57°
2026-04-30 22:10 51.90194 21.13965 5211 ft 217 kts 31°
2026-04-30 22:11 51.93016 21.15188 4621 ft 210 kts 357°
2026-04-30 22:11 51.94439 21.14717 4318 ft 209 kts 343°
2026-04-30 22:11 51.95787 21.13950 4122 ft 202 kts 340°
2026-04-30 22:12 51.97065 21.13124 3978 ft 193 kts 338°
2026-04-30 22:12 51.98267 21.12271 3848 ft 184 kts 337°
2026-04-30 22:12 51.99420 21.11399 3700 ft 183 kts 335°
2026-04-30 22:12 52.00556 21.10498 3589 ft 184 kts 334°
2026-04-30 22:13 52.01699 21.09561 3404 ft 185 kts 334°
2026-04-30 22:13 52.02838 21.08606 3124 ft 183 kts 333°
2026-04-30 22:13 52.03935 21.07679 3018 ft 170 kts 333°
2026-04-30 22:13 52.04957 21.06806 2784 ft 164 kts 333°
2026-04-30 22:14 52.05961 21.05945 2504 ft 161 kts 333°
2026-04-30 22:14 52.06903 21.05143 2264 ft 144 kts 332°
2026-04-30 22:14 52.07773 21.04388 2057 ft 143 kts 332°
2026-04-30 22:14 52.08654 21.03622 1873 ft 144 kts 332°
2026-04-30 22:15 52.09541 21.02850 1682 ft 145 kts 332°
2026-04-30 22:15 52.10430 21.02078 1474 ft 145 kts 332°
2026-04-30 22:15 52.11318 21.01313 1284 ft 145 kts 332°
2026-04-30 22:15 52.12210 21.00532 1074 ft 146 kts 330°
2026-04-30 22:16 52.13104 20.99754 901 ft 147 kts 330°
2026-04-30 22:16 52.14006 20.98961 694 ft 147 kts 331°
2026-04-30 22:17 52.16480 20.96791 347 ft 89 kts 332°
2026-04-30 22:17 52.16879 20.96513 341 ft 39 kts 358°
2026-04-30 22:17 52.17077 20.96543 341 ft 0 kts 44°
2026-04-30 22:18 52.17165 20.96592 340 ft 16 kts 337°
2026-04-30 22:19 52.17392 20.96396 340 ft 13 kts 336°
2026-04-30 22:19 52.17445 20.96432 340 ft 10 kts 54°
2026-04-30 22:19 52.17452 20.96579 338 ft 7 kts 139°
2026-04-30 22:20 52.17401 20.96626 339 ft 10 kts 153°
2026-04-30 22:20 52.17248 20.96760 339 ft 15 kts 152°
2026-04-30 22:20 52.17155 20.96842 341 ft 16 kts 152°
2026-04-30 22:21 52.17049 20.96935 340 ft 19 kts 152°
2026-04-30 22:21 52.16985 20.96990 339 ft 7 kts 151°
2026-04-30 22:21 52.16934 20.97035 339 ft 10 kts 151°
2026-04-30 22:21 52.16866 20.97095 339 ft 13 kts 152°
2026-04-30 22:22 52.16782 20.97168 341 ft 15 kts 152°
2026-04-30 22:22 52.16735 20.97211 338 ft 3 kts 131°
2026-04-30 22:22 52.16736 20.97224 340 ft 1 kts 71°
2026-04-30 22:22 52.16746 20.97253 341 ft 6 kts 62°
2026-04-30 22:23 52.16765 20.97311 339 ft 1 kts 61°
2026-04-30 22:23 52.16770 20.97324 338 ft 2 kts 62°
2026-04-30 22:23 52.16771 20.97327 338 ft 0 kts 62°